{"data":{"norad_id":55928,"intl_designator":"2023-037Q","name":"STARLINK-5930","alt_names":[],"object_type":"PAYLOAD","status":"ACTIVE","operator":null,"country":"US","launch_date":"2023-03-17","launch_site_code":"AFWTR","launch_vehicle":null,"mission":null,"orbit_class":"UNKNOWN","rcs_meters":null,"size_class":null,"mass_kg":null,"dimensions":null,"purposes":["comms"],"wikipedia_slug":null,"has_3d_model":false,"image_url":null,"decayed_at":null,"tle_current":{"epoch":"2026-09-20T18:43:51.332736Z","epoch_age_seconds":81945,"freshness":"FRESH","line1":"1 55928U 23037Q   26263.78045524  .00000443  00000+0  44885-4 0  9991","line2":"2 55928  70.0003 172.4123 0002756 264.7901  95.2943 14.98322431192719","mean_motion":14.98322431,"eccentricity":0.0002756,"inclination_deg":70.0003,"raan_deg":172.4123,"arg_perigee_deg":264.7901,"mean_anomaly_deg":95.2943,"bstar":4.4885e-5,"rev_number":19271,"period_min":96.107484624583,"perigee_km":570.16381793948,"apogee_km":573.99477716269,"semimajor_km":6950.2162975511,"source":"CELESTRAK","updated_at":"2026-09-21T09:00:33.324990Z"}}}